x

Southeast Hawaii - 205 Nm Southeast Of Hilo, Hi (51004) Wave Buoy

5:50pm - Tue 21st Oct 2014 All times are HST. -10 hours from GMT.

  • Sig Wave height 7.5ft
  • Swell Direction
  • Peak Period 12s
  • Average Period 7s
  • Wind
    20mph, 22mph gusts
  • Sea Temp 81°f
  • Air Temp 80°f
  • Sea Pressure 1013.5mb
  • Southeast Hawaii - 205 Nm Southeast Of Hilo, Hi
  • Southeast Hawaii - 205 Nm Southeast Of Hilo, Hi

More Historic Weather Station data

Upgrade to MSW Pro to gain access to the past 30 days of data for over 8000 Wavebouys and Weather Stations around the globe.

Join Pro

Comparision Forecast

View Surf forecast
   
Tue 10/21 5:50pm 7.5ft 12s 7s 20 22 mph 1013.5mb 81f 80f
4:50pm 7ft 12s 7s 18 20 mph 1013.3mb 81f 81f
3:50pm 8ft 13s 7s 18 22 mph 1012.9mb 81f 81f
2:50pm 8ft 13s 7s 18 20 mph 1013mb 81f 80f
1:50pm 7.5ft 13s 7s 18 20 mph 1013.2mb 81f 80f
12:50pm 7ft 9s 7s 18 20 mph 1013.9mb 81f 80f
11:50am 8ft 12s 7s 18 20 mph 1014.8mb 81f 80f
10:50am 8ft 13s 7s 18 20 mph 1015.3mb 81f 80f
9:50am 8ft 14s 7s 18 20 mph 1015.8mb 81f 80f
8:50am 8ft 14s 7s 16 20 mph 1015.8mb 81f 80f
7:50am 7.5ft 13s 7s 18 20 mph 1015.5mb 81f 80f
6:50am 9ft 13s 7s 18 20 mph 1015.1mb 81f 80f
5:50am 8ft 14s 7s 16 18 mph 1014.6mb 81f 80f
4:50am 8.5ft 14s 7s 16 18 mph 1014.3mb 81f 80f
3:50am 8ft 14s 7s 16 18 mph 1014.1mb 81f 80f
2:50am 8.5ft 13s 7s 16 20 mph 1014.1mb 81f 80f
1:50am 8ft 14s 7s 20 25 mph 1014.2mb 81f 80f
12:50am 8ft 12s 7s 18 22 mph 1014.4mb 81f 80f
Mon 10/20 11:50pm 8ft 14s 7s 18 22 mph 1015.1mb 81f 80f
10:50pm 9ft 14s 7s 20 25 mph 1015.3mb 81f 80f
9:50pm 8.5ft 11s 7s 20 25 mph 1015.7mb 81f 80f
8:50pm 9ft 14s 8s 18 22 mph 1015.4mb 81f 80f
7:50pm 7.5ft 13s 7s 20 25 mph 1014.9mb 81f 80f
6:50pm 8ft 14s 7s 18 22 mph 1014.2mb 81f 80f
5:50pm 8.5ft 14s 8s 18 20 mph 1013.6mb 81f 80f
4:50pm 9ft 14s 8s 18 20 mph 1013.2mb 81f 79f
3:50pm 8ft 15s 7s 18 25 mph 1012.9mb 81f 79f
2:50pm 8.5ft 14s 8s 16 20 mph 1012.8mb 81f 80f
1:50pm 8ft 14s 7s 16 20 mph 1013mb 81f 80f
12:50pm 8.5ft 15s 7s 18 20 mph 1013.6mb 81f 80f
11:50am 9ft 14s 8s 18 22 mph 1014.4mb 81f 80f
10:50am 9.5ft 14s 8s 18 22 mph 1015.4mb 81f 80f
9:50am 9ft 15s 7s 18 22 mph 1015.8mb 81f 80f
8:50am 9ft 15s 7s 20 25 mph 1015.6mb 81f 80f
7:50am 8.5ft 15s 7s 22 27 mph 1015mb 81f 80f
6:50am 9ft 15s 7s 20 22 mph 1014.5mb 81f 80f
5:50am 9ft 15s 7s 20 25 mph 1013.9mb 81f 80f
4:50am 8.5ft 15s 7s 20 25 mph 1013.5mb 81f 80f
3:50am 8.5ft 15s 7s 20 25 mph 1013.3mb 81f 80f
2:50am 9ft 15s 7s 22 25 mph 1013.4mb 81f 80f
1:50am 8.5ft 15s 7s 20 25 mph 1013.9mb 81f 80f
12:50am 10ft 16s 8s 20 25 mph 1014.7mb 81f 79f
Sun 10/19 11:50pm 9ft 16s 7s 20 25 mph 1015.3mb 81f 80f
10:50pm 8ft 16s 7s 22 27 mph 1015.3mb 81f 80f
9:50pm 10ft 16s 8s 22 27 mph 1015.8mb 81f 80f
8:50pm 8.5ft 17s 7s 22 27 mph 1015.5mb 81f 80f
7:50pm 8ft 16s 7s 22 25 mph 1015.3mb 81f 80f
5:50pm 7ft 17s 7s 20 22 mph 1014.2mb 81f 80f
4:50pm 8.5ft 17s 8s 18 22 mph 1013.6mb 81f 80f
3:50pm 7.5ft 17s 7s 20 22 mph 1013mb 81f 80f
2:50pm 7ft 17s 7s 18 22 mph 1013mb 81f 80f
1:50pm 7ft 17s 7s 18 20 mph 1013.4mb 81f 80f
12:50pm 6ft 17s 6s 16 20 mph 1014.1mb 81f 80f
11:50am 6ft 19s 6s 18 22 mph 1014.6mb 81f 80f
10:50am 7ft 19s 7s 18 22 mph 1015.9mb 81f 80f
9:50am 6ft 19s 6s 18 20 mph 1016.4mb 81f 80f
8:50am 6ft 19s 6s 18 22 mph 1016.3mb 81f 80f
7:50am 5.5ft 19s 6s 18 22 mph 1016.1mb 81f 80f
6:50am 6ft 19s 6s 18 20 mph 1015.8mb 81f 80f
5:50am 5ft 12s 6s 18 22 mph 1015.2mb 81f 80f
4:50am 5ft 11s 6s 18 20 mph 1014.7mb 81f 80f
3:50am 5ft 11s 6s 18 20 mph 1014.8mb 81f 80f
2:50am 5ft 11s 6s 16 20 mph 1014.9mb 81f 80f
1:50am 5ft 11s 6s 16 18 mph 1015mb 81f 80f
12:50am 5ft 11s 6s 16 20 mph 1016mb 81f 80f
Sat 10/18 11:50pm 5ft 9s 6s 16 20 mph 1016.7mb 81f 80f
10:50pm 5ft 11s 6s 16 20 mph 1016.9mb 81f 80f
9:50pm 5ft 11s 6s 16 20 mph 1017.2mb 81f 80f
8:50pm 5ft 7s 6s 18 20 mph 1017.2mb 81f 79f
7:50pm 5ft 11s 6s 16 18 mph 1016.9mb 81f 80f
6:50pm 5ft 11s 6s 13 16 mph 1016.1mb 81f 80f
5:50pm 5ft 11s 6s 11 13 mph 1015.6mb 81f 80f
4:50pm 5ft 11s 6s 13 16 mph 1015.1mb 81f 80f
3:50pm 5ft 11s 6s 13 16 mph 1014.7mb 81f 80f
2:50pm 5ft 7s 6s 11 13 mph 1014.4mb 81f 81f
1:50pm 5ft 7s 6s 11 13 mph 1014.8mb 81f 81f
12:50pm 6ft 7s 6s 11 13 mph 1015.2mb 81f 81f
11:50am 5.5ft 8s 6s 11 13 mph 1015.8mb 81f 81f
10:50am 5.5ft 8s 6s 13
mph
1016.6mb 81f 81f
9:50am 6ft 7s 6s 11 13 mph 1017.2mb 81f 81f
8:50am 5.5ft 7s 6s 11 13 mph 1017.3mb 81f 81f
7:50am 6ft 7s 6s 11 13 mph 1016.9mb 81f 81f
6:50am 6ft 7s 6s 11 13 mph 1016.3mb 81f 81f
5:50am 6ft 8s 6s 13 16 mph 1015.2mb 81f 80f